Simultaneous Nadir Overpasses (SNOs) Predictions

Prediction of SNOs between LANDSAT-8 and NOAA-19 Satellite Orbit:

Table of predicted SNOs for the next 14.0 days since TLE Epoch: 6/8/2017
Index Date (LANDSAT-8) Time (LANDSAT-8) Lat,Lon (LANDSAT-8) SZA (LANDSAT-8 ) Date (NOAA-19) Time (NOAA-19) Lat,Lon (NOAA-19) SZA (NOAA-19 ) Distance(km) Time Diff (sec)
1 06/09/2017 07:33:09 -76.35,-104.00 126.47 06/09/2017 07:31:57 -76.39,-104.95 126.48 25.31 72
2 06/09/2017 08:22:38 76.19, 63.13 53.35 06/09/2017 08:22:51 76.20, 63.05 53.36 2.31 13
3 06/11/2017 13:06:55 76.26, -7.72 53.26 06/11/2017 13:05:42 76.31, -7.99 53.29 8.81 73
4 06/11/2017 13:56:24 -76.18, 159.67 126.83 06/11/2017 13:56:42 -76.19, 159.70 126.82 0.80 18
5 06/13/2017 18:40:41 -76.25, 88.82 126.88 06/13/2017 18:39:31 -76.23, 88.90 126.91 3.29 70
6 06/13/2017 19:30:08 76.19,-103.75 53.05 06/13/2017 19:30:30 76.21,-103.79 53.07 3.03 22
7 06/16/2017 00:14:25 76.25,-174.61 53.02 06/16/2017 00:13:19 76.24,-174.52 53.00 2.90 66
8 06/16/2017 01:03:54 -76.18, -7.21 127.07 06/16/2017 01:04:20 -76.21, -7.16 127.03 3.22 26
9 06/18/2017 05:48:11 -76.25, -78.07 127.06 06/18/2017 05:47:09 -76.26, -77.99 127.05 2.53 62
10 06/18/2017 06:37:37 76.22, 89.50 52.92 06/18/2017 06:38:08 76.20, 89.49 52.90 3.09 31
11 06/20/2017 11:21:54 76.28, 18.62 52.95 06/20/2017 11:20:58 76.27, 18.57 52.93 2.07 56
12 06/20/2017 12:11:23 -76.22,-173.96 127.13 06/20/2017 12:11:57 -76.20,-173.91 127.13 2.16 34
13 06/22/2017 16:55:40 -76.28, 115.16 127.06 06/22/2017 16:54:46 -76.26, 115.23 127.08 2.60 54




NCC Satellite Simultaneous Nadir Overpasses (SNOs) Prediction Service
